Flag for U.S.A. Weather past 2 weeks in Cheyenne, Wyoming, U.S.A.

Now
58 °F

Clear.


Feels Like: 57 °F
Forecast: 52 / 78 °F
Wind: 7 mph from West

Location: Cheyenne Airport

Current Time: Oct 24, 2014 at 8:48:37 AM

Latest Report: Oct 24, 2014 at 7:53 AM


Visibility: 10 mi

Pressure: 30.04 "Hg

Humidity: 30%

Dew point: 26 °F

Location of CheyenneLocation

Historic Weather in Cheyenne — Graph

°F

Cheyenne temperature yesterday

Maximum temperature yesterday: 69 °F (at 2:53 PM)
Minimum temperature yesterday: 37 °F (at 2:53 AM)
Average temperature yesterday: 53 °F

Past Weeks' High & Low Weather Summary

 TemperatureHumidityPressure
High74 °F (Oct 15, 2:53 PM)100% (Oct 10, 7:53 AM)30.26 "Hg (Oct 10, 7:53 AM)
Low32 °F (Oct 18, 6:53 AM)12% (Oct 15, 2:53 PM)29.54 "Hg (Oct 12, 3:53 AM)
Average51 °F52%29.97 "Hg
* Reported Oct 9 7:53 AM — Oct 24 7:53 AM, Cheyenne, Weather by CustomWeather, © 2014

Note: Actual official high and low records may vary slightly from our data, if they occured in-between our weather recording intervals... More about our weather records

Advertising

Cheyenne weather history for previous 24 hours

 ConditionsComfort  
Time TempWeatherWind HumidityBarometerVisibility
7:53 AM
Oct 24
58 °FClear.7 mph30%30.04 "Hg10 mi
6:53 AM56 °FClear.3 mph32%30.02 "Hg10 mi
5:53 AM56 °FClear.8 mph33%29.97 "Hg10 mi
4:53 AM54 °FClear.3 mph34%29.96 "Hg10 mi
3:53 AM52 °FCool.6 mph38%29.95 "Hg10 mi
2:53 AM51 °FClear.9 mph41%29.96 "Hg10 mi
1:53 AM50 °FClear.12 mph46%29.97 "Hg10 mi
12:53 AM52 °FClear.13 mph43%29.96 "Hg10 mi
11:53 PM
Oct 23
52 °FClear.10 mph45%29.96 "Hg10 mi
10:53 PM55 °FClear.No wind39%29.96 "Hg10 mi
9:53 PM53 °FClear.7 mph45%29.98 "Hg10 mi
8:53 PM53 °FClear.No wind41%29.99 "Hg10 mi
7:53 PM52 °FClear.3 mph43%30.02 "Hg10 mi
6:53 PM56 °FSunny.10 mph42%30.04 "Hg10 mi
5:53 PM61 °FSunny.12 mph35%30.00 "Hg10 mi
4:53 PM64 °FSunny.12 mph32%29.98 "Hg10 mi
3:53 PM68 °FSunny.14 mph26%29.97 "Hg10 mi
2:53 PM69 °FSunny.18 mph21%29.97 "Hg10 mi
1:53 PM68 °FSunny.24 mph22%29.97 "Hg10 mi
12:53 PM65 °FSunny.28 mph25%30.00 "Hg10 mi
11:53 AM62 °FSunny.12 mph31%30.03 "Hg10 mi
10:53 AM60 °FSunny.12 mph35%30.04 "Hg10 mi
9:53 AM57 °FSunny.10 mph39%30.03 "Hg10 mi
8:53 AM55 °FSunny.14 mph42%30.03 "Hg10 mi
Weather by CustomWeather, © 2014

See weather overviewHow to use our weather pages